When you browse on this site, cookies collect data to enhance your experience and personalize the content and advertising you see.
Visit our Privacy Policy to learn more. By continuing to use the site, you agree to this use of cookies and data.

Meteo orario Krasnyj Liman

Oggi, 4 Agosto, Martedi

Tempo Temperatura Precipitazioni Vento Pressione Umidità
00:00 +18°C° 0 mm 2 m/s 753 mm Hg 64%
01:00 +17°C° 0 mm 2 m/s 753 mm Hg 65%
02:00 +17°C° 0 mm 2 m/s 753 mm Hg 67%
03:00 +18°C° 0 mm 1 m/s 753 mm Hg 71%
04:00 +17°C° 0 mm 2 m/s 753 mm Hg 72%
05:00 +17°C° 0 mm 2 m/s 753 mm Hg 72%
06:00 +17°C° 0 mm 2 m/s 753 mm Hg 73%
07:00 +19°C° 0 mm 2 m/s 753 mm Hg 66%
08:00 +21°C° 0 mm 2 m/s 754 mm Hg 59%
09:00 +24°C° 0 mm 2 m/s 754 mm Hg 51%
10:00 +26°C° 0 mm 2 m/s 754 mm Hg 47%
11:00 +27°C° 0 mm 2 m/s 754 mm Hg 42%
12:00 +28°C° 0 mm 2 m/s 753 mm Hg 37%
13:00 +29°C° 0 mm 3 m/s 753 mm Hg 35%
14:00 +29°C° 0 mm 3 m/s 753 mm Hg 34%
15:00 +30°C° 0 mm 3 m/s 753 mm Hg 32%
16:00 +29°C° 0 mm 3 m/s 753 mm Hg 34%
17:00 +29°C° 0 mm 4 m/s 753 mm Hg 35%
18:00 +29°C° 0 mm 4 m/s 752 mm Hg 37%
19:00 +27°C° 0 mm 4 m/s 753 mm Hg 42%
20:00 +23°C° 0 mm 4 m/s 753 mm Hg 48%
21:00 +21°C° 0 mm 3 m/s 753 mm Hg 54%
22:00 +21°C° 0 mm 3 m/s 753 mm Hg 56%
23:00 +20°C° 0 mm 3 m/s 753 mm Hg 58%

Domani, 5 Agosto, Mercoledi

Tempo Temperatura Precipitazioni Vento Pressione Umidità
00:00 +19°C° 0 mm 3 m/s 753 mm Hg 60%
01:00 +19°C° 0 mm 2 m/s 753 mm Hg 62%
02:00 +18°C° 0 mm 2 m/s 753 mm Hg 64%
03:00 +17°C° 0 mm 2 m/s 753 mm Hg 66%
04:00 +17°C° 0 mm 2 m/s 753 mm Hg 68%
05:00 +17°C° 0 mm 2 m/s 753 mm Hg 69%
06:00 +17°C° 0 mm 2 m/s 753 mm Hg 71%
07:00 +19°C° 0 mm 3 m/s 753 mm Hg 64%
08:00 +21°C° 0 mm 3 m/s 753 mm Hg 58%
09:00 +25°C° 0 mm 4 m/s 753 mm Hg 51%
10:00 +26°C° 0 mm 4 m/s 753 mm Hg 47%
11:00 +27°C° 0 mm 5 m/s 753 mm Hg 43%
12:00 +28°C° 0 mm 5 m/s 753 mm Hg 39%
13:00 +29°C° 0 mm 5 m/s 753 mm Hg 38%
14:00 +29°C° 0 mm 6 m/s 753 mm Hg 37%
15:00 +30°C° 0 mm 6 m/s 752 mm Hg 37%
16:00 +29°C° 0 mm 6 m/s 752 mm Hg 39%
17:00 +29°C° 0 mm 6 m/s 752 mm Hg 41%
18:00 +28°C° 0 mm 6 m/s 752 mm Hg 42%
19:00 +27°C° 0 mm 5 m/s 752 mm Hg 49%
20:00 +25°C° 0 mm 4 m/s 753 mm Hg 55%
21:00 +22°C° 0 mm 3 m/s 753 mm Hg 61%
22:00 +21°C° 0 mm 3 m/s 753 mm Hg 64%
23:00 +21°C° 0 mm 3 m/s 753 mm Hg 67%

Dopodomani, 6 Agosto, Giovedi

Tempo Temperatura Precipitazioni Vento Pressione Umidità
00:00 +20°C° 0 mm 3 m/s 753 mm Hg 70%
01:00 +20°C° 0 mm 3 m/s 753 mm Hg 71%
02:00 +19°C° 0 mm 3 m/s 753 mm Hg 73%
03:00 +19°C° 0 mm 3 m/s 753 mm Hg 74%
04:00 +19°C° 0 mm 3 m/s 753 mm Hg 76%
05:00 +18°C° 0 mm 3 m/s 753 mm Hg 77%
06:00 +18°C° 0 mm 3 m/s 754 mm Hg 78%
07:00 +20°C° 0 mm 4 m/s 754 mm Hg 72%
08:00 +22°C° 0 mm 4 m/s 754 mm Hg 66%
09:00 +25°C° 0 mm 5 m/s 754 mm Hg 59%
10:00 +27°C° 0 mm 5 m/s 754 mm Hg 55%
11:00 +29°C° 0 mm 5 m/s 754 mm Hg 50%
12:00 +30°C° 0 mm 5 m/s 754 mm Hg 46%
13:00 +32°C° 0 mm 5 m/s 754 mm Hg 44%
14:00 +33°C° 0 mm 5 m/s 753 mm Hg 42%
15:00 +34°C° 0 mm 5 m/s 753 mm Hg 41%
16:00 +33°C° 0 mm 5 m/s 753 mm Hg 43%
17:00 +32°C° 0 mm 5 m/s 753 mm Hg 45%
18:00 +32°C° 0 mm 5 m/s 753 mm Hg 46%
19:00 +29°C° 0 mm 5 m/s 753 mm Hg 51%
20:00 +27°C° 0 mm 4 m/s 753 mm Hg 56%
21:00 +25°C° 0 mm 4 m/s 753 mm Hg 61%
22:00 +23°C° 0 mm 4 m/s 754 mm Hg 62%
23:00 +22°C° 0 mm 3 m/s 754 mm Hg 63%

7 Agosto, Venerdi

Tempo Temperatura Precipitazioni Vento Pressione Umidità
00:00 +21°C° 0 mm 3 m/s 754 mm Hg 63%
01:00 +21°C° 0 mm 3 m/s 754 mm Hg 66%
02:00 +20°C° 0 mm 3 m/s 754 mm Hg 68%
03:00 +19°C° 0 mm 3 m/s 754 mm Hg 70%
04:00 +19°C° 0 mm 3 m/s 754 mm Hg 72%
05:00 +19°C° 0 mm 3 m/s 754 mm Hg 73%
06:00 +19°C° 0 mm 3 m/s 754 mm Hg 75%
07:00 +21°C° 0 mm 4 m/s 754 mm Hg 67%
08:00 +23°C° 0 mm 4 m/s 754 mm Hg 60%
09:00 +26°C° 0 mm 5 m/s 754 mm Hg 52%
10:00 +28°C° 0 mm 5 m/s 754 mm Hg 47%
11:00 +29°C° 0 mm 5 m/s 754 mm Hg 42%
12:00 +32°C° 0 mm 5 m/s 754 mm Hg 37%
13:00 +32°C° 0 mm 5 m/s 753 mm Hg 36%
14:00 +33°C° 0 mm 5 m/s 753 mm Hg 34%
15:00 +33°C° 0 mm 5 m/s 752 mm Hg 32%
16:00 +33°C° 0 mm 5 m/s 752 mm Hg 34%
17:00 +32°C° 0 mm 4 m/s 752 mm Hg 36%
18:00 +32°C° 0 mm 4 m/s 752 mm Hg 38%
19:00 +29°C° 0 mm 4 m/s 752 mm Hg 44%
20:00 +27°C° 0 mm 3 m/s 752 mm Hg 50%
21:00 +25°C° 0 mm 3 m/s 752 mm Hg 56%
22:00 +24°C° 0 mm 3 m/s 752 mm Hg 62%
23:00 +22°C° 0 mm 3 m/s 752 mm Hg 67%

8 Agosto, Sabato

Tempo Temperatura Precipitazioni Vento Pressione Umidità
00:00 +22°C° 0 mm 3 m/s 752 mm Hg 73%
01:00 +21°C° 0 mm 3 m/s 751 mm Hg 78%
02:00 +20°C° 0 mm 3 m/s 751 mm Hg 83%
03:00 +20°C° 0 mm 3 m/s 751 mm Hg 88%
04:00 +20°C° 0 mm 3 m/s 751 mm Hg 89%
05:00 +20°C° 0 mm 3 m/s 751 mm Hg 90%
06:00 +19°C° 0 mm 3 m/s 751 mm Hg 91%
07:00 +21°C° 0 mm 3 m/s 751 mm Hg 83%
08:00 +23°C° 0 mm 4 m/s 751 mm Hg 74%
09:00 +26°C° 0 mm 4 m/s 751 mm Hg 65%
10:00 +27°C° 0.1 mm 4 m/s 750 mm Hg 61%
11:00 +28°C° 0.1 mm 4 m/s 750 mm Hg 57%
12:00 +29°C° 0.1 mm 5 m/s 750 mm Hg 52%
13:00 +30°C° 0.1 mm 5 m/s 750 mm Hg 51%
14:00 +30°C° 0.1 mm 5 m/s 749 mm Hg 49%
15:00 +30°C° 0.1 mm 5 m/s 749 mm Hg 48%
16:00 +30°C° 0.1 mm 5 m/s 749 mm Hg 49%
17:00 +29°C° 0.1 mm 5 m/s 749 mm Hg 50%
18:00 +29°C° 0.1 mm 5 m/s 748 mm Hg 51%
19:00 +27°C° 0 mm 5 m/s 749 mm Hg 53%
20:00 +26°C° 0 mm 5 m/s 749 mm Hg 55%
21:00 +23°C° 0 mm 5 m/s 749 mm Hg 57%
22:00 +22°C° 0 mm 5 m/s 749 mm Hg 58%
23:00 +22°C° 0 mm 5 m/s 749 mm Hg 58%

9 Agosto, Domenica

Tempo Temperatura Precipitazioni Vento Pressione Umidità
00:00 +21°C° 0 mm 5 m/s 749 mm Hg 58%
01:00 +20°C° 0 mm 5 m/s 748 mm Hg 60%
02:00 +20°C° 0 mm 5 m/s 748 mm Hg 62%
03:00 +19°C° 0 mm 5 m/s 748 mm Hg 63%
04:00 +19°C° 0 mm 5 m/s 748 mm Hg 65%
05:00 +17°C° 0 mm 5 m/s 748 mm Hg 68%
06:00 +17°C° 0 mm 5 m/s 748 mm Hg 70%
07:00 +19°C° 0 mm 5 m/s 748 mm Hg 64%
08:00 +21°C° 0 mm 6 m/s 748 mm Hg 57%
09:00 +23°C° 0 mm 6 m/s 748 mm Hg 51%
10:00 +24°C° 0 mm 6 m/s 748 mm Hg 48%
11:00 +27°C° 0 mm 6 m/s 748 mm Hg 45%
12:00 +28°C° 0 mm 6 m/s 748 mm Hg 42%
13:00 +28°C° 0 mm 6 m/s 748 mm Hg 41%
14:00 +28°C° 0 mm 5 m/s 748 mm Hg 41%
15:00 +28°C° 0 mm 5 m/s 747 mm Hg 40%
16:00 +28°C° 0 mm 5 m/s 747 mm Hg 40%
17:00 +28°C° 0 mm 5 m/s 747 mm Hg 39%
18:00 +27°C° 0 mm 5 m/s 747 mm Hg 39%
19:00 +26°C° 0 mm 4 m/s 747 mm Hg 43%
20:00 +23°C° 0 mm 4 m/s 747 mm Hg 46%
21:00 +21°C° 0 mm 4 m/s 747 mm Hg 50%
22:00 +20°C° 0 mm 4 m/s 748 mm Hg 53%
23:00 +19°C° 0 mm 4 m/s 748 mm Hg 56%
Mostrare altro